EN

Hourly Weather Bolshie Lomy

Today, 25 October, Sunday

Time Temperature Precipitation Wind Pressure Humidity
00:00 +7°C° 0 mm 3 mps 737 mmHg 93%
01:00 +7°C° 0 mm 3 mps 737 mmHg 94%
02:00 +7°C° 0 mm 3 mps 738 mmHg 95%
03:00 +5°C° 0 mm 3 mps 738 mmHg 95%
04:00 +5°C° 0 mm 3 mps 738 mmHg 95%
05:00 +5°C° 0 mm 3 mps 738 mmHg 96%
06:00 +5°C° 0.3 mm 3 mps 738 mmHg 95%
07:00 +7°C° 0.3 mm 2 mps 739 mmHg 95%
08:00 +7°C° 0.3 mm 2 mps 739 mmHg 94%
09:00 +7°C° 0 mm 2 mps 740 mmHg 91%
10:00 +8°C° 0 mm 3 mps 740 mmHg 88%
11:00 +9°C° 0 mm 3 mps 741 mmHg 85%
12:00 +9°C° 0.1 mm 3 mps 741 mmHg 81%
13:00 +10°C° 0.1 mm 3 mps 741 mmHg 78%
14:00 +10°C° 0.1 mm 3 mps 742 mmHg 75%
15:00 +9°C° 0 mm 3 mps 742 mmHg 80%
16:00 +8°C° 0 mm 3 mps 742 mmHg 84%
17:00 +7°C° 0 mm 3 mps 742 mmHg 89%
18:00 +7°C° 0 mm 2 mps 743 mmHg 89%
19:00 +7°C° 0 mm 2 mps 743 mmHg 89%
20:00 +7°C° 0 mm 2 mps 744 mmHg 89%
21:00 +7°C° 0 mm 2 mps 744 mmHg 89%
22:00 +6°C° 0 mm 2 mps 744 mmHg 90%
23:00 +6°C° 0 mm 2 mps 744 mmHg 90%

Tomorrow, 26 October, Monday

Time Temperature Precipitation Wind Pressure Humidity
00:00 +6°C° 0 mm 2 mps 745 mmHg 91%
01:00 +5°C° 0 mm 2 mps 745 mmHg 92%
02:00 +6°C° 0 mm 1 mps 745 mmHg 92%
03:00 +6°C° 0 mm 1 mps 746 mmHg 93%
04:00 +6°C° 0 mm 1 mps 746 mmHg 93%
05:00 +6°C° 0 mm 1 mps 746 mmHg 93%
06:00 +6°C° 0 mm 1 mps 746 mmHg 92%
07:00 +7°C° 0 mm 1 mps 746 mmHg 91%
08:00 +7°C° 0 mm 1 mps 747 mmHg 90%
09:00 +8°C° 0 mm 1 mps 747 mmHg 87%
10:00 +9°C° 0 mm 1 mps 747 mmHg 84%
11:00 +10°C° 0 mm 1 mps 747 mmHg 82%
12:00 +10°C° 0 mm 1 mps 747 mmHg 82%
13:00 +10°C° 0 mm 1 mps 747 mmHg 82%
14:00 +11°C° 0 mm 1 mps 747 mmHg 82%
15:00 +10°C° 0 mm 1 mps 747 mmHg 82%
16:00 +9°C° 0 mm 2 mps 747 mmHg 83%
17:00 +8°C° 0 mm 2 mps 747 mmHg 83%
18:00 +8°C° 0 mm 2 mps 747 mmHg 84%
19:00 +7°C° 0 mm 2 mps 748 mmHg 86%
20:00 +6°C° 0 mm 2 mps 748 mmHg 87%
21:00 +6°C° 0 mm 2 mps 748 mmHg 88%
22:00 +6°C° 0 mm 2 mps 748 mmHg 89%
23:00 +5°C° 0 mm 3 mps 748 mmHg 90%

Day after tomorrow, 27 October, Tuesday

Time Temperature Precipitation Wind Pressure Humidity
00:00 +5°C° 0 mm 3 mps 748 mmHg 90%
01:00 +5°C° 0 mm 3 mps 748 mmHg 91%
02:00 +5°C° 0 mm 3 mps 748 mmHg 91%
03:00 +5°C° 0 mm 3 mps 748 mmHg 92%
04:00 +4°C° 0 mm 3 mps 748 mmHg 92%
05:00 +4°C° 0 mm 3 mps 748 mmHg 93%
06:00 +4°C° 0 mm 3 mps 748 mmHg 92%
07:00 +5°C° 0 mm 3 mps 748 mmHg 92%
08:00 +5°C° 0 mm 4 mps 748 mmHg 91%
09:00 +6°C° 0 mm 4 mps 748 mmHg 87%
10:00 +7°C° 0 mm 4 mps 748 mmHg 83%
11:00 +10°C° 0 mm 4 mps 749 mmHg 80%
12:00 +10°C° 0 mm 4 mps 748 mmHg 78%
13:00 +10°C° 0 mm 4 mps 748 mmHg 77%
14:00 +11°C° 0 mm 4 mps 748 mmHg 75%
15:00 +10°C° 0 mm 4 mps 748 mmHg 79%
16:00 +8°C° 0 mm 4 mps 748 mmHg 83%
17:00 +7°C° 0 mm 4 mps 748 mmHg 87%
18:00 +7°C° 0 mm 4 mps 748 mmHg 87%
19:00 +6°C° 0 mm 4 mps 748 mmHg 87%
20:00 +6°C° 0 mm 4 mps 748 mmHg 88%
21:00 +6°C° 0 mm 4 mps 748 mmHg 89%
22:00 +6°C° 0 mm 4 mps 748 mmHg 90%
23:00 +5°C° 0 mm 4 mps 748 mmHg 90%

, 28 October, Wednesday

Time Temperature Precipitation Wind Pressure Humidity
00:00 +5°C° 0 mm 4 mps 748 mmHg 90%
01:00 +5°C° 0 mm 4 mps 748 mmHg 90%
02:00 +5°C° 0 mm 4 mps 748 mmHg 90%
03:00 +4°C° 0 mm 4 mps 748 mmHg 90%
04:00 +4°C° 0 mm 4 mps 748 mmHg 90%
05:00 +4°C° 0 mm 4 mps 748 mmHg 90%
06:00 +4°C° 0 mm 4 mps 748 mmHg 89%
07:00 +4°C° 0 mm 4 mps 748 mmHg 87%
08:00 +4°C° 0 mm 4 mps 748 mmHg 86%
09:00 +6°C° 0 mm 5 mps 748 mmHg 82%
10:00 +7°C° 0 mm 5 mps 748 mmHg 77%
11:00 +8°C° 0 mm 5 mps 748 mmHg 73%
12:00 +8°C° 0 mm 5 mps 748 mmHg 72%
13:00 +9°C° 0 mm 5 mps 748 mmHg 70%
14:00 +9°C° 0 mm 5 mps 748 mmHg 69%
15:00 +8°C° 0 mm 4 mps 748 mmHg 73%
16:00 +7°C° 0 mm 4 mps 748 mmHg 77%
17:00 +6°C° 0 mm 4 mps 748 mmHg 80%
18:00 +6°C° 0 mm 4 mps 748 mmHg 81%
19:00 +6°C° 0 mm 4 mps 748 mmHg 83%
20:00 +5°C° 0 mm 4 mps 748 mmHg 84%
21:00 +5°C° 0 mm 4 mps 748 mmHg 84%
22:00 +5°C° 0 mm 4 mps 748 mmHg 85%
23:00 +4°C° 0 mm 3 mps 748 mmHg 86%

28 October, Wednesday

Time Temperature Precipitation Wind Pressure Humidity
00:00 +5°C° 0 mm 4 mps 748 mmHg 90%
01:00 +5°C° 0 mm 4 mps 748 mmHg 90%
02:00 +5°C° 0 mm 4 mps 748 mmHg 90%
03:00 +4°C° 0 mm 4 mps 748 mmHg 90%
04:00 +4°C° 0 mm 4 mps 748 mmHg 90%
05:00 +4°C° 0 mm 4 mps 748 mmHg 90%
06:00 +4°C° 0 mm 4 mps 748 mmHg 89%
07:00 +4°C° 0 mm 4 mps 748 mmHg 87%
08:00 +4°C° 0 mm 4 mps 748 mmHg 86%
09:00 +6°C° 0 mm 5 mps 748 mmHg 82%
10:00 +7°C° 0 mm 5 mps 748 mmHg 77%
11:00 +8°C° 0 mm 5 mps 748 mmHg 73%
12:00 +8°C° 0 mm 5 mps 748 mmHg 72%
13:00 +9°C° 0 mm 5 mps 748 mmHg 70%
14:00 +9°C° 0 mm 5 mps 748 mmHg 69%
15:00 +8°C° 0 mm 4 mps 748 mmHg 73%
16:00 +7°C° 0 mm 4 mps 748 mmHg 77%
17:00 +6°C° 0 mm 4 mps 748 mmHg 80%
18:00 +6°C° 0 mm 4 mps 748 mmHg 81%
19:00 +6°C° 0 mm 4 mps 748 mmHg 83%
20:00 +5°C° 0 mm 4 mps 748 mmHg 84%
21:00 +5°C° 0 mm 4 mps 748 mmHg 84%
22:00 +5°C° 0 mm 4 mps 748 mmHg 85%
23:00 +4°C° 0 mm 3 mps 748 mmHg 86%

29 October, Thursday

Time Temperature Precipitation Wind Pressure Humidity
00:00 +4°C° 0 mm 3 mps 748 mmHg 86%
01:00 +3°C° 0 mm 3 mps 748 mmHg 87%
02:00 +3°C° 0 mm 3 mps 748 mmHg 87%
03:00 +3°C° 0 mm 3 mps 748 mmHg 87%
04:00 +2°C° 0 mm 3 mps 748 mmHg 86%
05:00 +2°C° 0 mm 3 mps 748 mmHg 86%
06:00 +2°C° 0 mm 3 mps 748 mmHg 82%
07:00 +2°C° 0 mm 3 mps 748 mmHg 78%
08:00 +1°C° 0 mm 4 mps 748 mmHg 75%
09:00 +3°C° 0 mm 4 mps 748 mmHg 69%
10:00 +4°C° 0 mm 4 mps 748 mmHg 63%
11:00 +5°C° 0 mm 4 mps 748 mmHg 58%
12:00 +6°C° 0 mm 4 mps 747 mmHg 58%
13:00 +7°C° 0 mm 3 mps 747 mmHg 58%
14:00 +7°C° 0 mm 3 mps 747 mmHg 59%
15:00 +5°C° 0 mm 3 mps 747 mmHg 64%
16:00 +4°C° 0 mm 3 mps 747 mmHg 70%
17:00 +3°C° 0 mm 3 mps 747 mmHg 75%
18:00 +3°C° 0 mm 3 mps 747 mmHg 77%
19:00 +2°C° 0 mm 3 mps 746 mmHg 79%
20:00 +2°C° 0 mm 3 mps 746 mmHg 80%
21:00 +2°C° 0 mm 3 mps 746 mmHg 82%
22:00 +2°C° 0 mm 3 mps 746 mmHg 84%
23:00 +2°C° 0 mm 2 mps 746 mmHg 85%

30 October, Friday

Time Temperature Precipitation Wind Pressure Humidity
00:00 +2°C° 0 mm 2 mps 746 mmHg 86%
01:00 +2°C° 0 mm 2 mps 746 mmHg 87%
02:00 +2°C° 0 mm 2 mps 745 mmHg 88%
03:00 +2°C° 0 mm 2 mps 745 mmHg 89%
04:00 +2°C° 0 mm 2 mps 745 mmHg 90%
05:00 +2°C° 0 mm 2 mps 745 mmHg 90%
06:00 +2°C° 0 mm 2 mps 745 mmHg 89%
07:00 +2°C° 0 mm 2 mps 745 mmHg 88%
08:00 +3°C° 0 mm 2 mps 745 mmHg 87%
09:00 +4°C° 0 mm 2 mps 745 mmHg 83%
10:00 +5°C° 0 mm 2 mps 745 mmHg 79%
11:00 +6°C° 0 mm 2 mps 745 mmHg 75%
12:00 +6°C° 0 mm 2 mps 745 mmHg 77%
13:00 +6°C° 0 mm 2 mps 745 mmHg 78%
14:00 +7°C° 0 mm 2 mps 745 mmHg 80%
15:00 +6°C° 0 mm 2 mps 745 mmHg 84%
16:00 +5°C° 0 mm 2 mps 745 mmHg 88%
17:00 +5°C° 0 mm 2 mps 745 mmHg 93%
18:00 +4°C° 0 mm 2 mps 745 mmHg 94%
19:00 +4°C° 0 mm 2 mps 745 mmHg 95%
20:00 +4°C° 0 mm 2 mps 745 mmHg 96%
21:00 +3°C° 0 mm 3 mps 745 mmHg 97%
22:00 +3°C° 0 mm 3 mps 745 mmHg 97%
23:00 +3°C° 0 mm 3 mps 745 mmHg 97%
Show more